This is the latest recevied weather packets stored in our database for station/object JA1CAY-13. If no packets are shown the sender has not sent any weather packets the latest 10 day(s).
| Time | Temp. | Humidity | Pressure | Rain* | Wind** | Luminosity | Snow |
|---|---|---|---|---|---|---|---|
| 1778138125 | 26.11° C | 59% | 1007.3 hPa | 0 mm | - | 49 W/m² | - |
| 1778137586 | 26.67° C | 58% | 1007.3 hPa | 0 mm | - | 47 W/m² | - |
| 1778134345 | 27.78° C | 54% | 1007.7 hPa | 0 mm | - | 610 W/m² | - |
| 1778130566 | 28.89° C | 50% | 1008.3 hPa | 0 mm | - | 738 W/m² | - |
| 1778125166 | 27.78° C | 48% | 1009.9 hPa | 0 mm | - | 900 W/m² | - |
| 1778124625 | 28.33° C | 48% | 1010.1 hPa | 0 mm | - | 912 W/m² | - |
| 1778119765 | 26.11° C | 49% | 1011.7 hPa | 0 mm | - | 940 W/m² | - |
| 1778115986 | 22.78° C | 59% | 1012.9 hPa | 0 mm | - | 863 W/m² | - |
| 1778105726 | 17.78° C | 75% | 1015.5 hPa | 0 mm | - | 406 W/m² | - |
| 1778100866 | 15° C | 86% | 1015.8 hPa | 0 mm | - | 40 W/m² | - |
| 1778096546 | 15° C | 86% | 1015.8 hPa | 0 mm | - | 0 W/m² | - |
| 1778095465 | 15° C | 85% | 1015.9 hPa | 0 mm | - | 0 W/m² | - |
| 1778076025 | 15° C | 83% | 1017.7 hPa | 0 mm | - | 0 W/m² | - |
| 1778071706 | 15.56° C | 81% | 1018.2 hPa | 0 mm | - | 0 W/m² | - |
| 1778071165 | 15.56° C | 82% | 1017.9 hPa | 0 mm | - | 0 W/m² | - |
| 1778066306 | 15.56° C | 80% | 1018.1 hPa | 0 mm | - | 0 W/m² | - |
| 1778065766 | 15.56° C | 81% | 1017.7 hPa | 0 mm | - | 0 W/m² | - |
| 1778062525 | 16.67° C | 77% | 1018.2 hPa | 0 mm | - | 0 W/m² | - |
| 1778057125 | 18.33° C | 66% | 1017.9 hPa | 0 mm | - | 32 W/m² | - |
| 1778056586 | 18.33° C | 65% | 1018 hPa | 0 mm | - | 42 W/m² | - |
| 1778045786 | 18.33° C | 61% | 1018.7 hPa | 0 mm | - | 162 W/m² | - |
| 1778038765 | 17.78° C | 61% | 1020 hPa | 0 mm | - | 297 W/m² | - |
| 1778038225 | 17.22° C | 61% | 1020.2 hPa | 0 mm | - | 295 W/m² | - |
| 1778034445 | 16.11° C | 64% | 1021.3 hPa | 0 mm | - | 348 W/m² | - |
| 1778031205 | 15° C | 66% | 1022 hPa | 0 mm | - | 102 W/m² | - |
* Rain latest hour (hover to see other rain measurements)
** Current wind speed in m/s (hover to see current wind gust speed)